| time (UTC) | temp F | wind direction | speed MPH | gust MPH | rain 1hr in | rain 24hr in | rain mn in | humidity % | barometer mb |
| 20260506150747 | 47 | 215 | 0.0 | 0.0 | 0.00 | 0.39 | 0.37 | 80 | 1007.8 |
| 20260506145737 | 46 | 215 | 0.0 | 0.0 | 0.00 | 0.39 | 0.37 | 82 | 1007.9 |
| 20260506141219 | 44 | 225 | 0.0 | 4.0 | 0.00 | 0.39 | 0.37 | 86 | 1008.2 |
| 20260506135004 | 44 | 236 | 0.0 | 0.0 | 0.04 | 0.39 | 0.37 | 87 | 1008.0 |
| 20260506133954 | 44 | 236 | 0.0 | 0.0 | 0.07 | 0.38 | 0.36 | 86 | 1008.1 |
| 20260506133010 | 45 | 157 | 0.0 | 0.0 | 0.25 | 0.37 | 0.35 | 86 | 1008.3 |
| 20260506132013 | 46 | 217 | 0.0 | 0.0 | 0.28 | 0.33 | 0.31 | 85 | 1008.3 |
| 20260506131018 | 46 | 302 | 0.0 | 0.0 | 0.25 | 0.29 | 0.27 | 84 | 1007.7 |
| 20260506125954 | 46 | 343 | 1.0 | 5.0 | 0.24 | 0.26 | 0.24 | 82 | 1007.2 |
| 20260506122717 | 51 | 205 | 0.0 | 4.0 | 0.00 | 0.15 | 0.13 | 80 | 1006.6 |
| 20260506121717 | 51 | 81 | 0.0 | 0.0 | 0.00 | 0.15 | 0.13 | 81 | 1006.1 |
| 20260506120701 | 51 | 99 | 2.0 | 7.0 | 0.00 | 0.15 | 0.13 | 81 | 1005.9 |
| 20260506115626 | 51 | 44 | 2.0 | 6.0 | 0.00 | 0.15 | 0.13 | 83 | 1005.6 |
| 20260506114615 | 51 | 87 | 2.0 | 4.0 | 0.00 | 0.15 | 0.13 | 82 | 1005.5 |
| 20260506113552 | 50 | 50 | 4.0 | 8.0 | 0.00 | 0.14 | 0.12 | 81 | 1005.5 |
| 20260506112543 | 50 | 22 | 3.0 | 7.0 | 0.00 | 0.14 | 0.12 | 79 | 1005.5 |
| 20260506111551 | 51 | 44 | 3.0 | 6.0 | 0.00 | 0.14 | 0.12 | 81 | 1005.5 |
| 20260506110511 | 50 | 62 | 1.0 | 6.0 | 0.00 | 0.14 | 0.12 | 82 | 1005.4 |
| 20260506105523 | 50 | 42 | 2.0 | 8.0 | 0.00 | 0.14 | 0.12 | 82 | 1005.5 |
| 20260506104506 | 50 | 36 | 3.0 | 8.0 | 0.00 | 0.14 | 0.12 | 80 | 1005.6 |
| 20260506102341 | 51 | 51 | 1.0 | 7.0 | 0.00 | 0.14 | 0.12 | 79 | 1005.3 |
| 20260506101349 | 50 | 17 | 2.0 | 6.0 | 0.00 | 0.14 | 0.12 | 80 | 1005.2 |
| 20260506095223 | 50 | 19 | 0.0 | 3.0 | 0.00 | 0.14 | 0.12 | 79 | 1005.1 |
| 20260506094233 | 50 | 55 | 0.0 | 0.0 | 0.00 | 0.14 | 0.12 | 83 | 1005.4 |
| 20260506093218 | 51 | 51 | 0.0 | 0.0 | 0.00 | 0.14 | 0.12 | 83 | 1005.3 |
| 20260506092234 | 50 | 51 | 0.0 | 0.0 | 0.00 | 0.14 | 0.12 | 81 | 1005.4 |
| 20260506091245 | 49 | 50 | 0.0 | 0.0 | 0.00 | 0.14 | 0.12 | 84 | 1005.3 |
| 20260506090228 | 48 | 19 | 0.0 | 0.0 | 0.00 | 0.14 | 0.12 | 83 | 1005.6 |
| 20260506084022 | 48 | 19 | 0.0 | 0.0 | 0.00 | 0.14 | 0.12 | 88 | 1005.6 |
| 20260506083011 | 48 | 19 | 0.0 | 0.0 | 0.00 | 0.14 | 0.12 | 89 | 1005.7 |
| 20260506081940 | 48 | 19 | 0.0 | 0.0 | 0.00 | 0.14 | 0.12 | 89 | 1005.7 |
| 20260506072607 | 45 | 5 | 0.0 | 0.0 | 0.00 | 0.14 | 0.11 | 89 | 1006.0 |
| 20260506071630 | 45 | 306 | 0.0 | 0.0 | 0.03 | 0.14 | 0.11 | 89 | 1006.1 |
| 20260506062346 | 45 | 28 | 0.0 | 0.0 | 0.09 | 0.09 | 0.07 | 91 | 1006.2 |
| 20260506061412 | 45 | 28 | 0.0 | 0.0 | 0.00 | 0.07 | 0.05 | 91 | 1006.2 |
| 20260506060339 | 45 | 28 | 0.0 | 0.0 | 0.00 | 0.07 | 0.04 | 91 | 1006.1 |
| 20260506044233 | 44 | 28 | 0.0 | 0.0 | 0.00 | 0.07 | 0.04 | 90 | 1006.5 |
| 20260506043254 | 44 | 28 | 0.0 | 0.0 | 0.00 | 0.07 | 0.04 | 90 | 1006.5 |
| 20260506042248 | 44 | 28 | 0.0 | 0.0 | 0.00 | 0.07 | 0.04 | 90 | 1006.6 |
| 20260506041258 | 44 | 254 | 0.0 | 0.0 | 0.00 | 0.07 | 0.04 | 90 | 1006.7 |
| 20260506040303 | 44 | 254 | 0.0 | 0.0 | 0.00 | 0.07 | 0.04 | 90 | 1006.7 |